Theta_e
356 355 353 351 348 345 341 339 337 337 336 334 333 332 331 331 331 331 332 332 333 332 331 331 332 335 335 333 332 333 335 338 339 340 339 339 339 339 338 338 338 337 337 338 340 342 341 342 344 346 346 343 340 339 344 347 346 343 340 342 345 345 341 339 337 333 329 331 331 330 331 331 331 333 336 336 338 340 342 344 347 347 346 345 345
358 357 355 354 351 348 345 342 339 338 337 337 336 335 334 334 333 334 335 334 334 334 333 331 331 334 335 334 333 332 333 335 337 338 339 338 339 339 339 337 337 337 337 336 337 340 340 340 339 341 342 342 341 340 341 344 344 342 340 346 352 354 352 349 345 338 329 328 330 330 331 331 331 334 336 337 340 341 343 347 349 348 349 349 350
359 358 357 356 354 352 348 345 341 340 339 337 337 337 337 336 337 337 337 335 336 336 335 333 332 333 335 335 333 332 333 334 335 336 337 338 338 337 338 338 336 336 336 336 336 337 336 335 335 337 339 339 339 340 338 339 340 340 342 349 355 355 355 354 351 344 335 331 330 330 330 331 333 335 337 337 339 342 347 351 352 352 353 353 352
360 359 358 356 356 354 351 348 344 342 341 340 338 338 339 339 339 339 338 337 336 337 339 337 335 334 335 335 335 334 334 335 335 335 335 336 336 336 337 337 337 336 336 337 337 338 337 334 332 334 336 337 338 338 337 337 337 336 339 346 353 355 355 356 354 350 343 336 331 330 330 330 331 335 337 337 340 344 350 355 356 355 353 353 352
360 361 359 358 357 355 353 350 347 344 342 341 340 341 341 341 342 340 340 338 337 338 341 341 339 338 337 335 334 334 333 334 335 336 335 336 336 336 336 336 336 336 335 335 336 338 338 335 333 333 333 334 334 335 334 334 334 334 334 338 344 350 352 353 352 349 343 335 330 330 329 329 330 334 338 340 342 348 354 357 358 357 354 354 353
362 361 361 360 359 356 354 351 348 345 344 343 342 342 342 343 343 343 341 340 339 339 341 343 342 341 339 336 334 333 332 333 334 335 335 336 336 335 336 335 336 335 335 334 334 335 335 334 332 332 332 332 331 332 332 331 331 332 333 333 336 339 341 340 338 337 334 332 330 329 328 329 331 334 339 342 346 353 357 359 359 358 356 357 355
364 363 362 362 360 358 355 352 348 346 344 343 343 344 345 344 345 344 342 341 341 341 342 343 343 341 340 339 336 334 333 333 333 333 334 334 335 334 334 334 335 335 334 333 333 333 333 332 331 331 332 332 332 332 333 333 332 332 334 334 335 337 336 333 331 331 331 330 329 328 329 331 333 335 340 344 350 357 360 359 358 357 357 358 355
365 365 364 363 361 359 356 353 350 347 345 345 344 345 346 346 345 345 343 342 343 343 342 342 343 342 341 340 338 336 336 336 334 333 333 333 334 333 333 333 333 334 334 333 333 332 331 331 331 332 331 331 332 333 334 334 334 334 335 336 336 338 337 333 331 330 329 328 328 328 330 331 332 336 340 346 353 359 360 357 356 357 358 356 351
366 366 365 364 363 360 357 355 353 350 347 346 346 345 345 346 346 346 345 344 344 345 344 342 342 342 341 341 340 338 338 337 336 335 333 333 332 332 332 332 332 332 333 333 333 332 331 331 331 332 332 331 332 332 334 334 336 335 335 335 335 335 334 332 331 329 328 328 328 329 330 330 330 334 340 348 354 357 355 354 356 357 355 352 348
366 366 365 365 364 361 359 357 355 353 350 348 347 346 346 347 348 347 347 345 345 346 347 346 345 344 342 342 341 340 338 337 336 334 333 333 332 332 331 331 331 332 332 332 331 331 330 330 331 331 331 331 331 333 337 341 342 340 338 338 336 335 334 332 331 329 329 328 327 328 329 328 329 332 339 346 350 350 350 350 351 351 350 350 350
367 367 367 366 365 363 361 358 356 354 352 350 348 348 348 348 349 348 348 347 347 347 348 350 349 346 345 343 342 341 338 335 334 334 333 333 333 333 332 331 331 331 331 332 331 331 330 329 328 328 332 335 339 341 344 346 347 346 343 340 338 336 335 333 330 329 329 328 328 329 329 328 328 330 335 339 341 341 343 345 348 349 352 354 355
367 367 368 366 366 365 362 360 358 355 353 352 350 349 350 350 350 350 349 350 349 349 349 351 352 350 349 347 344 342 339 335 334 333 332 332 332 332 332 332 331 331 332 332 331 332 331 330 328 328 330 337 346 350 349 348 348 347 342 338 337 336 334 332 330 329 329 329 328 328 328 329 330 331 334 336 338 341 344 347 351 354 356 357 357
367 367 368 367 366 365 364 362 359 356 354 352 351 351 351 351 352 352 352 352 351 351 351 352 353 353 352 350 348 345 342 339 337 334 332 331 331 332 333 333 332 332 332 331 332 332 331 332 331 330 329 332 340 345 346 346 346 344 340 337 338 337 333 330 329 328 329 329 328 328 328 331 334 335 339 343 346 349 351 354 356 358 358 358 356
367 367 367 367 367 366 364 363 360 357 355 354 353 352 351 352 353 353 354 355 355 354 352 351 353 354 354 353 351 349 345 343 341 338 335 333 332 331 332 333 333 333 332 332 332 331 332 332 332 331 331 332 336 339 339 339 338 338 337 337 336 333 330 328 327 327 328 329 329 328 331 337 341 341 343 347 351 354 356 358 358 359 359 357 355
366 367 367 367 367 366 365 363 361 359 356 354 354 353 352 352 353 354 356 357 356 356 354 352 352 353 355 354 354 352 349 346 344 342 339 336 335 334 334 334 334 334 333 332 332 331 331 332 332 331 330 331 335 340 342 341 339 338 334 332 330 328 326 325 325 326 329 331 332 332 335 343 349 350 348 349 354 357 358 358 358 359 359 356 353
366 367 367 367 366 366 365 364 362 360 358 356 355 355 354 353 353 355 357 358 357 357 356 354 352 351 353 354 355 355 352 349 348 346 343 339 339 339 339 338 337 336 335 334 333 332 332 332 333 332 331 328 328 333 338 340 341 338 333 329 327 326 325 324 325 328 330 331 332 335 339 347 352 353 351 353 356 358 358 358 358 359 357 353 350
365 365 367 367 366 366 365 364 363 361 359 357 356 356 355 354 353 354 356 358 358 358 357 357 355 352 352 353 354 354 354 353 352 350 347 344 345 345 344 342 340 337 336 335 334 334 333 333 333 334 332 329 326 326 332 336 337 336 333 330 328 326 324 324 327 329 330 330 333 335 339 344 349 349 352 355 358 359 359 358 356 354 352 349 347
364 364 366 366 366 365 365 364 364 362 361 359 357 356 356 355 354 353 355 357 358 358 357 357 357 355 352 352 353 354 354 354 354 353 350 349 349 349 347 346 343 340 338 337 336 335 335 334 335 336 333 330 327 327 330 336 338 336 334 333 331 329 326 327 329 330 331 333 334 335 337 342 347 352 355 357 358 359 358 355 350 348 347 346 346
363 363 364 365 365 366 365 365 364 363 362 360 358 357 356 356 355 354 355 356 357 358 358 357 357 357 354 352 351 353 354 354 354 354 353 352 352 352 353 352 349 345 341 339 337 336 334 334 335 336 334 331 330 330 332 335 337 336 337 339 338 332 328 330 332 333 335 337 336 336 339 344 349 354 356 355 356 358 356 351 348 347 346 346 346
362 362 363 365 366 365 365 365 364 363 363 361 359 358 357 356 356 355 355 355 357 358 358 357 357 357 356 354 352 352 352 353 354 354 353 353 353 354 356 356 353 348 344 341 337 335 335 333 333 333 333 332 331 332 333 334 334 334 337 340 338 333 331 335 337 337 338 339 339 340 341 344 348 352 353 353 355 356 354 350 348 347 346 346 347
363 362 363 364 366 365 365 365 364 364 363 362 361 360 359 358 357 356 355 355 357 358 358 358 358 357 357 356 355 353 351 351 351 351 351 350 349 351 353 352 348 345 343 340 339 338 336 336 334 333 332 332 332 332 332 332 332 333 334 335 335 335 336 339 340 340 342 343 344 344 344 346 348 350 351 353 354 354 353 350 348 347 346 346 346
363 363 361 363 365 366 366 365 365 365 364 363 362 361 360 359 358 358 357 356 356 357 358 358 358 358 357 357 357 354 352 348 347 346 345 344 343 344 345 344 341 341 341 341 341 341 340 339 338 336 336 336 335 334 334 334 334 334 334 335 338 340 341 343 344 345 345 346 346 346 346 347 349 351 353 355 356 355 353 352 350 347 345 345 344
363 363 362 362 364 365 366 366 366 365 365 364 364 363 362 361 360 360 359 357 356 357 357 358 358 358 359 358 356 355 351 349 346 342 341 342 340 340 341 341 342 343 345 345 345 344 343 342 342 341 341 341 341 340 340 340 340 339 339 341 344 346 348 348 349 348 347 346 346 346 348 349 351 354 355 355 354 352 351 351 350 347 344 345 341
362 363 362 362 363 365 366 366 366 366 366 366 365 364 364 363 362 361 360 359 358 357 357 358 358 359 360 359 357 355 352 350 347 342 341 342 343 343 345 347 348 348 349 349 348 347 347 348 347 347 346 346 346 345 346 347 346 346 348 349 351 352 353 353 353 353 351 350 348 347 348 350 351 352 351 350 350 350 351 352 349 345 345 345 337
362 363 362 362 362 364 366 367 366 367 367 367 366 365 365 364 364 363 361 360 359 358 357 357 358 360 360 359 357 354 352 353 351 346 344 346 347 348 349 350 352 352 352 352 352 351 353 352 352 352 351 350 350 350 351 352 353 353 354 355 355 355 355 355 355 355 354 353 351 349 349 348 348 348 348 348 351 352 352 350 347 346 347 342 330
361 363 362 362 361 363 366 367 367 367 367 368 367 366 366 366 365 364 364 362 361 359 358 357 357 359 359 359 356 354 353 354 354 350 349 349 349 348 349 351 354 354 355 355 356 356 356 355 355 355 354 354 355 357 357 358 358 358 358 358 358 357 356 355 355 354 354 353 352 350 349 347 348 349 351 352 353 352 351 349 348 347 341 331 322
362 363 362 361 362 363 366 367 367 368 367 368 368 367 367 367 366 366 366 364 363 362 360 358 356 357 357 357 356 355 354 355 355 353 351 350 347 348 350 353 356 357 358 358 358 358 358 357 357 357 357 357 358 360 361 361 361 361 360 359 359 358 357 356 356 355 354 354 352 350 349 350 352 354 354 354 352 350 350 349 344 337 328 322 320
363 363 362 362 362 363 365 366 367 367 368 368 369 368 368 368 366 367 366 365 364 363 360 359 357 354 353 354 355 356 356 355 354 350 347 346 346 347 351 354 357 359 359 358 357 359 359 359 359 359 358 358 359 360 361 362 361 361 360 360 360 359 358 358 357 356 355 355 354 352 352 354 355 355 353 351 350 349 349 344 337 327 321 320 321
363 364 362 363 363 363 365 366 367 367 368 369 368 368 369 368 368 368 367 365 363 362 359 357 355 354 352 352 352 353 354 352 349 346 344 344 346 347 350 352 355 356 357 356 358 360 360 360 360 359 360 359 359 359 359 360 360 360 359 359 359 358 358 358 358 357 356 356 356 354 353 355 355 352 351 349 348 346 344 338 330 324 321 320 323
365 363 363 364 363 363 365 367 367 368 369 370 369 369 369 369 369 369 368 367 365 364 361 358 356 355 355 353 350 350 348 347 346 347 348 349 350 351 351 353 354 356 356 357 359 361 361 361 361 361 361 360 360 359 359 358 359 359 359 359 358 358 358 358 358 358 356 355 356 355 354 355 354 351 348 347 345 342 338 333 328 324 321 321 324
368 367 365 364 365 366 366 367 368 368 368 368 369 369 370 370 370 369 369 368 368 367 364 361 359 357 356 354 353 351 350 349 350 351 352 352 354 355 355 356 357 358 358 359 361 362 361 362 362 362 362 361 360 360 359 358 358 358 358 358 358 358 358 358 357 356 355 355 355 355 354 355 353 350 347 345 342 337 333 331 328 325 322 322 326
369 370 369 368 368 367 367 367 367 368 368 368 368 369 370 370 370 369 369 369 367 366 365 364 362 359 358 356 355 353 352 353 353 353 353 355 355 356 356 357 359 361 362 362 363 363 362 363 363 362 362 362 361 360 359 358 357 358 358 358 358 358 357 357 356 355 354 354 354 354 355 354 352 351 348 341 336 332 331 331 330 326 326 328 330
367 368 369 370 369 368 368 366 364 364 365 366 367 368 369 370 370 370 369 368 368 366 365 364 362 361 359 358 357 355 354 354 354 354 355 355 356 356 357 360 362 364 364 364 364 364 363 363 363 363 363 363 362 361 359 358 357 358 358 359 359 358 357 357 356 356 354 353 354 354 353 352 352 351 345 337 332 332 332 332 331 330 330 331 332
364 365 367 368 367 368 367 365 363 362 362 362 364 364 364 365 367 369 368 368 368 367 365 364 362 361 360 360 360 359 358 358 358 358 357 358 359 360 362 363 365 365 365 365 364 365 365 364 363 364 363 363 362 362 360 358 358 358 358 358 358 358 358 357 356 356 355 354 353 351 350 350 348 344 338 333 332 333 332 331 332 331 331 332 333
362 363 364 365 366 366 366 365 364 364 362 362 363 363 362 361 362 365 368 368 367 366 365 363 363 363 362 362 362 361 361 361 362 362 362 362 364 364 364 365 365 365 365 365 364 365 365 365 364 364 364 363 363 362 361 359 359 358 359 359 358 358 358 357 357 356 354 353 351 349 349 347 342 336 333 332 332 332 332 332 331 330 331 332 332
359 361 363 364 365 365 364 363 363 362 362 362 363 363 362 361 360 362 364 366 367 366 365 363 364 364 364 364 363 363 363 363 365 364 364 364 365 364 364 364 364 364 365 365 365 364 364 364 364 364 363 363 362 362 361 360 359 359 359 359 359 358 358 357 356 354 352 351 349 346 343 340 335 332 331 331 331 331 332 331 330 330 331 331 331
356 358 360 362 363 363 363 362 361 361 361 361 362 362 362 361 360 360 361 362 365 366 366 364 364 364 364 364 364 364 364 364 364 364 364 365 364 364 364 364 364 364 364 365 365 365 364 364 363 363 362 362 362 360 360 359 360 360 359 359 359 358 357 355 353 352 351 348 343 339 336 334 332 331 331 331 331 330 331 331 331 331 331 330 329
353 355 357 359 362 362 362 362 361 362 361 361 361 360 360 360 360 360 360 361 364 365 366 365 364 363 363 364 364 365 364 365 364 364 364 364 364 364 364 364 364 364 365 365 365 364 364 363 363 362 362 362 361 360 360 359 359 359 358 358 357 355 353 351 351 350 346 339 335 334 334 333 332 331 331 330 330 330 330 330 331 330 329 329 329
349 352 353 356 359 361 361 362 361 361 361 360 359 359 358 359 360 360 360 361 362 364 365 365 364 364 364 364 364 365 365 364 365 365 365 364 364 364 364 364 365 364 364 364 363 363 363 363 362 362 362 361 360 359 359 359 359 357 356 356 354 351 349 348 346 342 336 331 331 332 332 332 331 331 331 331 330 329 329 330 330 330 330 329 328
345 347 349 352 355 357 358 359 360 360 360 360 359 358 358 358 359 361 362 362 362 362 364 366 366 365 365 365 364 364 364 365 365 365 365 364 364 364 364 363 363 363 362 362 362 361 361 361 360 360 360 360 358 356 355 355 354 353 352 352 349 346 344 340 336 332 329 328 329 332 333 332 331 331 330 331 331 330 330 330 330 330 330 329 328
343 343 345 348 352 354 354 355 358 358 358 359 359 358 358 358 360 361 361 362 363 364 365 365 366 365 365 365 364 364 364 364 364 364 364 364 363 363 362 361 360 360 359 359 359 358 358 359 358 359 358 358 355 353 351 351 350 349 348 346 344 342 339 334 330 328 328 327 328 332 333 333 332 331 331 331 331 331 330 330 329 329 329 329 328
342 343 342 344 347 348 346 348 354 356 356 358 356 353 353 356 357 357 359 361 362 364 364 364 363 364 364 363 362 362 362 362 362 362 361 362 361 360 360 359 358 358 357 356 355 355 355 354 354 354 354 353 352 349 348 348 347 346 344 342 340 337 335 331 328 327 327 326 327 330 332 332 331 331 331 331 331 330 330 329 329 328 328 328 328
340 341 341 342 343 338 332 334 346 352 353 354 353 350 351 354 354 353 356 359 360 362 363 362 360 360 360 359 359 359 358 358 357 358 358 357 357 357 357 356 356 355 354 353 351 350 350 350 349 349 349 348 347 346 344 343 342 341 340 338 336 335 333 331 328 327 327 326 327 329 331 330 330 330 330 330 330 330 329 329 329 328 328 327 327
336 339 339 340 341 337 331 334 344 349 349 351 353 352 353 355 354 354 357 358 357 357 358 356 356 355 353 352 352 353 354 354 354 355 355 354 355 354 353 352 351 349 348 347 346 345 346 345 345 345 344 343 343 341 339 339 338 338 336 336 334 332 331 330 328 327 328 327 328 329 329 329 329 329 329 329 329 329 328 328 328 327 327 327 326
333 336 338 338 339 339 338 340 344 346 347 351 352 352 352 354 354 354 356 356 355 354 353 351 351 350 348 347 348 349 350 352 351 351 351 350 350 350 349 347 345 344 344 343 342 341 341 341 341 341 340 339 339 337 336 336 336 334 333 333 332 331 330 329 328 328 329 329 328 328 328 328 328 328 328 327 328 328 328 327 327 327 326 326 326
329 332 335 336 337 338 338 339 340 341 343 346 348 349 349 351 351 351 352 351 351 351 350 349 348 346 345 344 345 345 346 347 347 348 348 347 346 346 344 342 341 340 339 338 337 336 336 336 336 337 336 336 335 333 333 333 332 331 331 331 330 330 330 329 328 329 329 329 329 329 329 328 328 327 327 327 326 326 326 326 326 326 325 325 325
329 330 332 334 335 336 337 337 338 338 338 339 341 342 343 344 345 346 346 346 346 346 346 345 344 343 342 341 341 341 341 343 344 344 344 343 342 341 339 337 337 336 336 335 334 333 333 332 333 332 332 331 330 330 330 330 330 329 329 329 329 329 329 328 328 327 328 328 328 328 328 328 327 327 326 326 326 326 327 327 326 325 325 325 325
330 331 332 333 333 334 335 336 336 337 336 336 336 336 337 338 339 340 340 340 340 340 339 339 339 338 337 336 337 336 337 338 339 339 339 339 338 337 336 335 335 334 334 333 332 331 331 330 329 329 328 328 328 328 328 328 328 328 328 328 328 328 327 327 327 327 327 326 326 327 327 327 327 326 326 326 326 326 326 325 325 325 324 323 322
330 331 331 332 332 333 334 335 335 336 335 335 334 334 334 334 334 334 334 335 335 335 335 335 335 334 334 334 333 334 334 334 335 334 334 334 333 332 332 332 331 331 331 330 329 328 328 328 327 327 327 327 326 326 326 327 327 327 327 327 327 327 327 327 327 327 327 327 327 327 327 326 326 326 326 325 325 324 323 323 323 322 321 321 320
328 328 328 328 328 328 329 330 331 331 331 332 332 332 333 333 332 332 331 331 331 331 332 332 332 332 332 332 332 332 332 332 331 330 330 329 329 328 328 328 327 327 327 327 326 326 326 326 325 325 325 325 325 325 325 326 326 326 326 326 326 326 326 326 326 326 326 326 325 325 325 324 324 323 323 322 322 321 321 321 320 320 319 318 316
326 325 325 324 323 324 324 325 325 325 326 327 328 328 329 330 330 330 331 330 329 329 329 329 329 329 329 330 330 329 329 328 328 327 326 326 326 326 326 325 325 325 325 325 325 324 324 323 324 324 323 323 324 324 324 324 324 324 324 324 324 324 323 323 323 323 323 322 322 322 322 321 321 321 321 320 320 318 317 316 315 313 312 311 310
Wind_Speed
46 48 49 49 49 48 47 45 43 42 41 40 40 39 38 37 35 33 32 30 28 27 27 25 25 25 24 23 22 21 21 21 19 18 18 18 17 17 17 17 17 16 15 14 15 15 13 13 13 13 13 14 14 12 12 12 11 11 10 9 8 8 8 9 12 11 7 6 8 8 9 12 14 14 15 15 15 16 17 17 18 20 20 19 17
46 47 48 48 49 49 48 46 44 43 42 41 40 39 38 37 36 34 33 32 30 29 29 28 26 26 25 25 24 23 23 23 22 20 19 19 18 18 18 18 18 17 16 16 15 16 15 15 14 14 14 14 14 13 12 13 14 14 13 10 9 10 11 11 13 15 13 9 10 13 14 16 18 17 17 17 17 16 16 15 14 13 12 12 12
46 46 47 48 48 48 48 47 46 45 44 43 41 40 39 37 36 36 34 33 32 31 31 29 28 27 27 26 25 24 23 23 24 23 21 20 20 19 19 19 19 18 17 16 16 16 16 16 15 15 15 15 15 15 14 14 15 16 15 13 12 13 13 13 15 17 18 17 16 17 18 19 19 19 18 18 18 17 17 16 14 13 12 13 16
46 46 47 47 48 48 48 48 47 46 45 44 42 41 40 38 37 36 35 34 33 33 32 32 30 29 29 28 26 25 24 24 24 24 23 22 21 20 20 20 19 18 17 16 16 16 16 16 15 15 15 16 16 16 16 15 15 16 16 14 15 15 14 14 16 18 21 21 20 19 20 20 20 19 19 19 19 18 17 16 16 16 17 18 20
45 46 47 47 47 48 49 48 48 47 46 45 43 41 40 39 38 37 36 35 34 34 34 34 33 32 31 30 28 26 25 24 24 23 23 23 22 21 20 20 19 19 18 17 17 17 17 17 16 16 16 16 17 17 16 16 16 16 16 15 16 17 16 17 18 19 21 22 21 20 20 20 21 20 20 21 21 18 16 16 16 17 19 20 22
45 45 46 47 48 49 49 49 49 48 47 45 44 42 41 40 39 38 37 36 35 35 34 35 35 34 33 31 30 28 26 25 25 24 23 23 23 23 22 21 20 19 18 18 17 17 17 17 17 17 17 17 17 17 16 16 16 16 16 16 15 16 17 17 17 18 19 20 21 21 21 22 23 23 21 21 19 17 17 16 15 16 19 20 23
43 44 45 47 48 49 50 50 49 48 47 46 44 43 42 40 39 38 37 37 37 36 35 35 36 35 34 33 31 29 28 27 26 25 24 24 23 23 23 22 22 21 20 19 17 17 17 17 17 17 17 17 17 17 16 16 17 17 16 15 15 15 15 15 15 16 18 20 21 22 23 23 24 24 23 20 17 15 16 16 17 18 19 21 25
43 43 45 46 48 50 50 50 49 48 47 46 45 44 43 41 40 38 38 38 38 38 36 36 36 35 35 34 32 31 30 29 28 27 27 25 24 24 23 23 23 22 22 21 19 19 18 17 18 18 18 17 17 16 17 17 17 17 17 16 15 15 15 15 15 17 18 21 22 23 24 25 25 25 23 20 16 14 15 17 19 20 21 24 27
43 43 45 46 47 49 49 49 49 48 48 47 46 45 43 41 40 38 38 38 39 39 38 36 36 36 35 34 33 32 31 31 31 29 28 27 25 25 24 24 23 23 22 22 21 20 19 18 19 19 19 19 18 18 18 17 18 18 18 17 17 16 16 16 16 18 19 22 23 24 25 26 25 25 24 20 16 16 18 20 21 21 24 28 28
43 44 45 46 46 46 48 49 48 48 49 48 47 46 44 42 41 39 38 38 38 39 39 38 37 36 36 35 35 34 33 32 32 31 29 28 26 25 25 24 24 23 23 22 22 21 20 20 19 19 18 18 18 17 16 15 16 16 16 17 17 18 18 18 18 19 21 23 24 25 26 27 26 26 24 21 19 21 22 23 24 26 27 29 27
44 45 45 46 45 45 46 47 48 48 49 48 47 46 45 43 41 40 39 37 37 39 40 40 38 37 36 36 36 36 35 33 32 32 30 29 28 27 26 25 24 24 23 23 22 22 21 21 20 19 19 19 18 17 16 15 16 16 16 16 17 18 18 19 20 21 22 24 24 25 26 27 27 26 25 24 23 25 25 25 26 27 26 27 27
44 45 45 45 45 45 45 46 47 48 48 48 47 46 45 44 42 41 40 39 37 38 40 41 39 38 37 36 36 36 35 33 32 32 30 29 29 29 28 27 26 25 25 24 23 22 22 21 21 20 20 20 20 20 20 19 19 19 18 18 18 19 19 20 21 21 21 23 24 25 25 25 25 24 23 23 23 24 24 24 24 24 24 26 26
44 45 45 46 46 45 45 45 46 48 48 48 47 46 46 45 44 43 42 41 39 38 39 40 40 38 37 36 36 35 34 33 33 32 31 30 29 29 29 29 28 27 27 26 25 24 24 23 22 21 20 19 20 22 23 23 22 22 21 20 20 20 20 20 20 20 21 22 24 24 23 22 22 19 17 18 19 20 20 20 20 22 23 24 24
43 45 45 46 46 46 45 45 46 47 48 48 47 47 47 46 45 44 43 43 42 39 38 39 40 39 38 37 36 35 33 32 32 31 31 30 29 29 29 29 30 30 29 28 27 26 25 24 24 23 22 21 21 22 22 22 22 22 21 21 21 20 20 20 20 20 21 22 23 23 20 18 18 17 15 15 17 17 17 18 20 21 22 23 23
41 43 46 47 46 47 47 46 46 46 47 48 48 47 47 47 46 45 44 44 44 42 39 39 40 41 39 38 37 36 34 32 30 29 28 28 29 30 30 30 30 31 30 29 28 27 26 26 25 24 23 23 24 24 24 23 22 22 22 22 22 22 22 21 21 21 22 21 21 21 19 16 15 16 15 15 15 16 17 19 20 21 22 23 22
41 42 45 48 48 48 48 47 46 46 47 48 49 48 48 48 48 46 45 45 44 43 41 39 40 41 41 40 38 37 36 33 30 28 26 25 26 28 29 30 30 30 31 30 30 29 27 27 26 25 24 23 23 24 26 26 26 26 26 25 25 24 23 22 22 23 23 22 21 20 19 17 15 15 16 16 15 15 17 19 19 19 21 23 21
43 44 45 47 49 49 48 48 47 47 47 48 49 49 48 48 48 47 47 46 45 44 43 41 40 40 42 42 41 39 37 35 32 30 27 25 24 24 26 27 28 29 30 30 30 30 30 29 28 26 25 23 22 22 24 26 27 28 28 27 26 26 25 23 23 24 24 23 23 22 21 19 17 17 17 16 15 16 17 19 19 19 20 20 19
44 45 46 46 49 49 49 48 47 47 48 49 49 50 49 48 48 48 48 47 46 44 44 43 41 40 41 43 43 41 38 36 34 31 29 27 26 25 24 24 26 27 28 29 31 32 32 31 30 29 27 25 23 22 22 24 26 27 27 26 26 26 25 24 24 25 25 25 25 25 23 20 17 16 16 16 17 16 17 18 19 18 18 17 17
45 46 47 45 47 49 48 48 48 48 48 49 50 50 49 48 48 48 48 47 46 44 43 43 43 42 41 42 43 43 41 38 36 33 31 29 28 27 26 26 26 26 27 27 29 31 33 33 33 32 31 28 27 25 25 25 26 27 26 26 27 28 26 25 26 26 26 27 26 24 23 21 19 18 17 18 18 16 16 18 18 18 17 16 16
46 46 46 44 45 48 48 48 49 49 49 49 49 49 49 48 48 48 49 48 46 44 43 43 43 43 42 42 43 44 43 41 38 35 33 32 31 29 29 29 29 28 28 27 27 28 31 32 34 34 33 32 31 30 29 29 29 29 29 29 30 29 28 27 27 28 28 27 26 24 23 22 21 20 20 20 20 18 17 18 18 18 19 17 16
46 46 45 45 45 46 48 49 48 49 48 47 48 48 48 48 48 48 49 49 47 45 43 43 43 43 43 42 42 43 43 43 42 40 37 36 34 33 33 33 32 31 30 29 29 28 28 29 31 32 33 33 33 33 33 33 33 32 32 32 32 31 29 29 29 29 28 26 25 25 24 23 22 21 20 21 21 19 18 18 18 19 19 18 17
45 47 45 46 45 45 47 48 47 48 47 46 47 48 48 48 48 48 48 49 48 47 45 44 43 43 42 43 43 42 42 41 41 40 39 39 37 37 37 36 33 33 32 31 31 29 28 26 26 27 29 30 32 33 34 34 34 34 34 33 32 32 31 30 29 29 28 27 26 27 27 26 24 22 21 20 20 21 21 21 19 18 17 17 18
43 47 45 46 46 45 47 47 47 47 47 46 47 47 46 47 47 47 48 48 49 48 47 45 44 43 42 42 42 42 41 40 38 36 35 36 36 37 37 36 33 33 33 32 30 28 27 26 25 24 25 26 27 28 29 30 30 30 30 29 29 29 29 29 29 28 28 27 27 28 29 29 28 25 23 22 23 24 24 23 21 18 17 17 19
40 46 46 46 47 46 46 47 46 46 46 45 45 46 46 46 46 47 47 48 48 49 48 47 45 43 42 41 41 40 39 38 37 34 32 32 33 33 34 34 33 32 32 31 29 27 27 26 26 25 25 25 25 24 24 25 25 24 23 22 23 24 25 27 27 27 28 28 28 29 29 29 28 27 24 23 23 22 21 22 21 19 18 19 19
39 46 47 46 47 46 45 46 46 45 45 45 45 45 46 46 47 47 47 48 49 49 49 48 46 44 42 42 41 39 38 37 36 34 32 31 30 30 30 30 30 29 29 28 27 27 28 27 27 28 27 26 25 24 23 22 22 21 20 19 20 21 22 23 24 25 27 27 26 25 24 23 23 22 20 20 20 19 19 20 20 20 20 20 17
39 47 48 47 47 46 45 45 45 44 44 44 44 45 45 45 47 47 47 48 49 49 50 49 48 46 44 43 42 40 38 36 36 35 33 31 30 29 28 28 28 28 28 27 27 28 29 29 29 30 29 27 25 23 22 21 20 19 19 19 19 20 20 21 21 22 23 22 22 21 20 19 18 18 18 19 19 19 18 19 20 21 20 16 12
40 47 48 46 46 46 45 45 44 43 43 43 43 44 44 45 46 47 48 49 49 49 49 50 50 49 47 45 44 42 40 38 37 36 34 33 32 31 31 30 29 28 28 28 28 28 29 30 31 31 30 28 25 23 22 22 21 21 20 20 20 20 20 20 21 21 21 21 21 21 20 18 17 17 17 18 19 18 16 16 18 18 14 10 9
40 47 48 47 46 45 45 45 44 43 43 43 43 43 43 44 46 48 49 49 50 50 50 50 51 51 50 49 46 43 42 41 41 40 39 37 35 34 33 32 31 31 30 29 28 28 30 32 32 31 30 30 28 27 25 23 23 22 22 22 22 21 21 22 22 23 22 22 22 21 19 17 17 16 17 18 19 18 15 15 15 13 8 7 8
40 46 47 46 45 45 44 44 44 43 42 42 42 42 43 44 45 47 48 49 49 50 50 51 51 51 50 50 48 46 45 45 45 44 42 40 38 36 35 33 32 32 30 28 27 29 31 32 32 31 30 30 30 29 28 27 25 24 23 23 23 23 24 24 24 24 25 24 22 21 19 19 18 18 18 19 19 18 15 13 12 9 7 8 8
41 45 46 45 45 44 44 43 42 42 41 41 42 43 44 45 46 46 46 47 48 48 48 48 49 48 48 48 47 46 45 45 44 44 43 40 39 37 35 33 31 29 28 27 27 29 30 31 30 30 29 29 29 29 29 29 29 28 25 24 23 24 25 25 25 26 26 24 21 20 20 21 20 20 20 20 19 16 13 11 9 8 9 9 8
36 39 42 43 43 42 42 40 40 40 40 41 43 45 45 45 47 47 47 46 46 47 46 46 45 45 45 44 44 43 43 42 42 42 41 40 38 36 33 31 28 25 24 25 27 29 29 29 29 28 28 29 29 28 28 27 28 28 26 25 24 24 25 25 26 26 25 23 21 20 20 22 23 22 21 19 16 13 11 9 9 8 8 7 5
28 30 34 39 40 40 42 42 40 39 39 39 41 45 46 46 46 47 47 46 45 45 45 44 43 42 42 41 40 40 39 39 39 39 39 38 36 34 32 29 25 22 22 24 26 27 28 28 28 27 27 28 27 27 26 26 25 25 24 23 24 25 25 26 26 25 22 21 21 21 21 22 23 22 19 16 14 12 10 9 8 6 5 4 4
29 27 28 33 36 38 42 44 44 42 41 39 37 39 43 47 48 48 47 46 45 44 43 43 42 41 39 38 37 36 34 34 33 33 34 34 33 31 29 26 23 21 22 24 25 25 26 27 27 27 27 27 26 25 24 23 22 22 21 22 23 24 25 26 25 23 21 20 20 20 21 21 22 21 19 15 13 12 10 9 8 5 3 3 5
31 29 25 27 32 35 38 41 43 43 43 43 41 39 39 41 45 47 47 45 43 42 42 42 41 39 37 35 33 30 29 28 27 26 27 26 25 25 25 24 22 22 23 23 24 23 24 25 26 27 27 26 25 24 23 21 20 21 22 22 23 24 25 25 25 24 22 20 19 19 19 19 19 19 17 15 12 11 11 11 10 7 5 5 7
29 29 28 29 32 34 36 38 40 41 42 43 44 43 40 38 39 43 45 44 40 39 41 42 40 37 34 32 29 27 27 26 25 25 25 24 23 23 24 24 23 24 25 25 25 24 24 24 24 24 25 24 24 23 23 22 22 22 23 24 24 24 24 25 25 24 22 19 18 18 18 17 16 16 15 13 11 12 13 12 10 8 7 8 8
23 27 32 35 34 34 36 37 37 38 40 41 41 41 40 39 39 40 41 40 39 40 41 41 38 35 33 30 29 29 28 26 25 25 25 25 24 24 24 24 25 25 26 26 26 25 24 24 23 22 22 22 21 21 22 23 24 25 25 24 24 24 24 25 25 23 21 18 17 17 15 14 13 13 13 12 12 13 12 10 8 7 9 9 7
17 22 28 33 34 35 37 38 36 37 39 41 39 37 36 37 38 38 38 39 41 41 41 39 36 35 33 31 30 30 29 28 26 26 25 24 24 24 24 24 24 25 26 26 26 26 25 25 24 22 20 19 19 20 21 23 25 26 26 26 25 25 25 24 23 21 19 16 15 13 12 10 11 12 12 12 13 12 10 7 7 8 8 8 8
11 16 20 26 31 33 36 37 37 36 38 39 38 35 34 35 37 38 39 41 42 41 40 38 35 34 33 31 29 29 28 27 27 26 25 24 23 23 24 24 25 25 26 26 26 26 26 25 24 23 20 18 18 20 23 25 27 27 27 27 26 24 22 22 21 19 16 14 13 13 11 10 11 13 13 12 13 12 10 8 8 9 8 8 7
2 9 13 18 24 29 32 34 35 36 38 38 37 33 31 32 35 39 41 42 41 40 39 37 35 34 32 30 28 27 26 26 26 26 25 25 25 25 25 25 26 26 26 26 25 25 26 25 24 23 21 19 19 22 24 26 28 28 27 26 24 21 19 19 17 15 13 14 13 11 10 10 11 12 12 12 11 12 11 10 9 9 8 7 7
4 4 9 13 17 22 26 30 32 33 36 37 35 31 31 33 36 39 40 39 38 38 38 37 36 34 31 29 28 28 28 27 27 27 27 27 27 27 26 25 26 26 26 26 26 26 25 25 24 24 22 20 21 21 21 22 23 23 22 20 18 16 16 14 12 11 13 13 13 13 12 10 8 9 11 12 11 11 12 11 10 9 9 9 9
9 5 7 12 16 18 20 25 29 31 32 33 31 30 35 39 40 40 41 41 40 39 37 35 33 31 29 28 28 29 30 30 30 29 29 29 28 28 26 25 24 23 23 23 23 23 23 24 24 23 21 20 21 20 19 19 19 17 17 17 16 16 17 15 14 15 15 15 16 17 15 12 11 12 14 15 14 14 13 12 11 11 11 11 12
14 11 8 10 16 18 18 22 28 31 30 30 30 32 36 38 36 37 41 43 42 39 35 32 28 27 25 25 25 25 26 28 29 29 29 28 28 26 25 24 22 21 20 20 20 20 20 20 20 19 18 18 19 19 18 19 18 17 18 19 20 20 20 18 17 17 16 16 18 19 17 14 14 16 17 17 16 15 14 12 12 12 13 13 14
17 15 13 11 14 16 18 26 33 33 30 31 34 35 36 36 34 34 37 37 36 33 31 27 25 23 22 22 22 22 22 23 24 25 25 24 24 22 22 21 21 20 21 20 19 17 16 15 15 14 14 15 16 16 15 16 17 17 19 21 22 23 22 20 17 15 15 16 18 19 17 14 14 15 16 16 15 15 14 14 14 14 14 14 15
18 16 16 15 14 14 19 30 40 39 35 35 37 37 36 36 34 31 30 29 27 24 23 22 22 22 22 22 21 22 23 23 23 23 23 22 21 21 21 21 20 20 20 19 17 16 14 13 13 13 14 15 16 16 14 14 15 16 18 19 20 20 19 17 15 15 15 16 17 17 16 15 13 13 13 14 14 14 14 15 15 15 16 16 16
19 18 17 17 17 17 19 26 33 36 36 36 36 34 32 31 28 25 24 23 22 20 21 22 23 24 25 24 22 23 25 26 25 25 23 22 21 21 21 20 20 19 18 17 16 15 14 13 13 14 15 16 16 16 15 15 16 17 17 17 17 16 15 14 15 15 15 16 16 17 16 16 14 14 13 13 14 14 15 15 16 17 17 18 18
16 17 18 18 18 19 20 21 22 25 28 32 32 32 30 28 24 22 22 22 23 25 26 27 27 27 26 25 25 25 26 26 24 23 23 22 21 20 20 19 19 18 17 17 16 15 15 15 15 15 16 17 17 16 16 16 16 16 16 15 14 14 14 13 14 14 15 15 16 17 17 16 16 15 15 14 14 15 15 17 18 19 20 20 20
15 16 17 18 18 19 20 19 18 18 20 23 26 28 29 27 25 24 23 23 25 27 29 29 30 29 29 28 28 27 26 25 24 23 22 22 21 21 20 19 18 17 16 16 16 16 16 17 17 17 17 18 17 17 16 16 16 15 15 14 14 13 13 13 13 13 13 13 14 15 15 15 16 16 16 16 16 17 18 19 20 20 20 21 20
14 16 17 17 18 18 18 19 18 18 18 19 20 22 23 24 24 24 24 23 24 25 27 28 28 28 27 26 25 24 23 21 21 20 20 20 19 18 18 17 17 16 16 16 16 16 16 16 16 16 16 15 15 15 14 14 14 13 13 14 13 12 12 12 12 11 11 11 12 13 13 14 15 16 16 17 17 17 17 17 17 17 18 18 18
11 14 15 16 17 18 18 19 19 19 18 18 19 20 20 21 21 22 22 21 21 21 22 22 22 22 20 19 17 15 14 13 13 14 14 13 13 12 11 11 11 12 13 14 14 14 14 13 13 13 13 13 13 13 13 13 13 13 12 13 12 12 11 11 11 11 11 12 12 13 13 14 14 15 16 16 16 16 15 16 16 16 16 16 16
10 12 15 16 18 19 18 18 19 19 18 18 19 20 20 20 20 20 19 19 19 19 18 18 17 17 15 14 12 11 11 11 11 12 13 14 14 14 14 14 15 15 15 16 16 15 14 14 13 12 12 12 12 12 12 12 12 11 11 10 10 9 9 9 10 10 10 11 12 13 14 14 15 15 15 15 15 15 15 15 15 14 14 13 13
11 13 15 16 18 19 19 19 20 20 19 18 19 20 20 20 20 20 18 17 17 18 18 17 16 16 15 15 15 14 14 14 15 16 18 19 19 20 19 19 18 17 17 16 16 15 15 13 12 11 10 9 9 9 8 8 8 8 8 8 7 7 7 8 9 9 10 10 11 12 13 13 13 13 13 14 14 14 13 12 12 12 11 11 11
Wind_Direction
215 216 216 216 217 218 220 221 222 223 224 224 226 227 227 229 231 231 231 228 225 223 223 223 221 220 220 220 219 218 218 222 222 219 221 221 220 220 217 216 217 214 210 213 215 218 222 222 222 224 224 225 227 228 229 239 249 257 266 281 295 298 292 285 289 291 282 278 298 315 325 326 328 330 327 326 324 320 317 315 313 311 311 314 320
215 216 217 217 218 219 220 220 221 222 223 224 225 226 226 227 229 230 230 227 223 222 223 224 224 223 221 220 219 219 219 222 224 221 221 222 221 222 222 221 221 218 215 215 216 219 223 227 230 233 234 236 237 238 234 236 248 260 267 277 291 298 297 294 295 299 303 314 323 329 335 333 331 334 336 334 334 332 332 333 329 323 322 329 342
215 216 217 218 218 219 219 220 221 221 222 223 224 225 225 226 227 228 228 227 223 221 221 224 225 225 225 222 220 219 218 221 224 224 223 223 223 222 223 226 226 223 221 220 220 222 226 230 232 234 237 240 241 242 242 238 243 252 258 264 273 279 284 288 291 298 306 316 325 328 330 330 329 334 336 335 336 337 341 347 346 344 348 352 354
215 216 218 219 219 218 219 219 220 220 221 222 223 224 224 225 226 226 227 226 223 220 220 222 225 226 226 225 222 220 218 219 222 224 224 224 224 223 223 226 230 229 226 223 223 226 230 234 235 235 237 241 244 245 244 242 242 247 251 253 259 265 271 277 283 290 297 305 315 321 323 325 327 331 332 334 337 340 343 346 347 348 350 351 351
216 217 218 219 218 218 219 219 219 220 220 221 222 224 224 224 223 224 224 223 223 221 219 220 223 225 226 227 225 221 218 219 221 222 223 225 226 225 224 225 229 232 232 229 226 226 231 234 234 235 238 241 245 248 247 247 244 245 247 246 248 254 257 262 269 276 283 293 306 314 317 322 325 327 331 334 336 339 341 342 343 342 341 342 346
215 216 218 219 218 218 218 218 219 219 220 220 221 222 223 223 223 222 222 221 221 221 219 219 221 224 227 228 227 224 220 221 223 223 223 224 226 227 227 227 229 233 235 234 232 231 234 235 233 233 238 242 247 251 252 254 251 248 247 246 246 249 252 256 263 271 281 291 302 310 316 321 323 325 329 331 333 336 339 340 338 333 331 333 338
214 215 217 218 218 218 218 218 219 219 220 220 220 220 221 223 223 222 221 219 219 219 220 219 221 224 226 228 228 226 223 223 225 227 227 226 226 226 228 230 231 235 237 238 238 239 240 239 236 235 239 244 248 252 256 258 257 254 252 253 255 256 259 265 273 282 291 297 304 310 316 319 320 321 324 328 330 331 334 333 329 325 325 325 328
213 214 216 217 218 218 218 218 218 219 219 219 220 221 220 221 222 222 221 219 217 218 220 220 221 224 226 227 228 228 226 225 226 227 229 230 229 229 229 230 232 235 238 241 243 244 243 242 241 241 243 247 250 254 258 260 261 261 260 261 262 263 266 272 280 289 295 300 304 309 312 314 316 317 320 326 329 326 323 322 321 320 318 316 322
213 213 215 217 217 217 217 217 217 217 218 218 218 220 220 220 221 222 222 220 217 217 220 222 222 223 224 226 227 228 227 227 227 228 230 232 232 233 233 234 235 237 239 243 245 245 244 243 243 243 244 246 249 253 257 259 260 261 262 263 264 264 268 274 281 289 295 299 304 308 309 311 315 316 318 324 323 315 314 314 313 311 309 312 323
212 212 214 217 217 216 216 216 216 216 217 217 217 218 219 218 219 220 222 221 217 216 218 221 223 223 224 224 225 226 227 228 229 231 232 234 236 236 237 238 240 241 243 245 245 245 245 244 245 246 245 244 246 249 254 258 261 263 263 263 264 265 268 274 281 288 293 296 302 306 307 310 315 315 315 316 312 308 309 309 308 309 311 317 329
212 212 214 216 216 215 216 216 216 215 216 217 217 217 217 217 217 219 221 221 218 215 216 219 222 224 225 225 224 225 228 229 231 232 233 236 237 238 240 242 243 245 247 248 248 248 248 248 249 248 245 243 244 249 256 261 263 265 265 263 263 264 268 274 280 286 290 294 299 302 303 309 315 313 310 310 309 308 308 308 309 313 320 326 333
213 213 214 215 215 216 216 216 216 215 216 217 217 217 217 216 216 216 219 221 219 216 214 217 221 224 225 226 227 227 229 231 232 232 233 236 237 239 241 242 244 247 249 251 252 252 251 252 252 250 246 241 239 244 252 257 260 264 266 267 267 268 269 272 277 282 287 292 297 299 302 308 312 312 309 308 308 307 307 309 314 320 327 331 334
214 213 213 214 216 217 217 216 216 216 216 217 218 217 216 216 215 215 217 220 221 219 215 214 219 223 225 226 228 229 231 232 233 233 234 235 237 238 239 241 244 247 249 251 253 254 254 254 253 252 249 242 238 240 245 249 254 260 264 267 267 268 269 271 276 283 288 292 295 298 304 308 308 309 310 306 304 305 307 313 319 325 329 331 333
214 214 214 215 217 218 218 218 218 217 216 217 218 217 216 215 215 214 215 218 220 221 218 214 215 221 225 227 229 231 233 234 234 235 235 235 236 237 239 241 243 245 248 251 252 253 255 255 255 255 252 246 242 242 244 246 251 255 260 263 265 267 271 274 279 285 289 291 294 298 303 305 303 307 311 307 304 306 309 314 320 326 327 327 331
217 216 215 216 217 218 219 219 219 218 217 216 217 218 217 215 215 214 214 217 220 222 221 217 214 217 222 227 229 232 235 237 237 237 236 236 236 237 238 239 242 244 246 249 251 253 254 254 256 257 254 249 242 240 241 245 249 254 259 264 268 272 275 279 283 287 288 289 291 295 300 303 302 305 310 309 306 306 308 312 321 325 321 321 327
219 220 218 217 217 218 219 220 219 218 217 216 216 218 218 216 214 213 213 216 220 222 223 221 217 216 219 224 228 232 235 238 239 239 239 238 237 237 238 239 240 242 244 246 249 251 253 253 254 256 255 252 245 240 239 241 244 250 256 262 267 271 274 279 283 285 287 289 291 294 298 299 298 299 302 304 304 304 305 311 319 317 311 314 321
220 221 220 219 218 218 219 220 220 218 217 217 217 217 217 216 215 214 213 214 217 220 222 223 221 218 218 221 226 230 233 237 239 240 242 241 238 236 237 238 239 241 242 245 246 249 251 252 254 256 256 254 250 245 243 243 245 247 252 258 263 268 273 279 283 286 289 292 294 295 294 293 292 293 295 296 298 299 302 309 314 309 305 309 315
220 222 223 222 219 217 217 220 221 220 218 218 218 217 217 217 215 214 213 214 216 219 221 222 222 221 219 220 223 227 230 234 237 239 242 242 240 238 236 236 238 239 240 242 244 246 249 251 253 256 258 259 257 254 252 251 251 252 254 259 264 269 275 281 285 289 291 291 292 292 292 292 291 289 288 288 291 293 299 307 310 304 301 304 310
221 223 224 223 221 218 217 219 222 222 220 219 218 217 217 217 216 214 214 214 215 217 220 220 220 222 222 221 222 224 228 231 234 236 239 241 241 240 239 237 238 240 241 241 243 245 247 250 252 253 258 262 263 262 261 258 258 260 260 260 264 271 279 283 285 287 287 287 289 290 289 289 286 283 281 283 286 288 294 301 302 298 297 300 304
224 224 225 224 222 220 218 220 222 222 221 220 219 218 217 217 216 215 214 214 214 216 218 220 220 221 223 223 222 223 225 227 229 232 235 237 238 238 238 238 241 244 245 245 246 247 247 249 251 252 256 260 262 264 264 264 264 266 265 264 266 274 281 282 282 283 284 286 288 288 287 286 284 282 282 282 282 283 288 293 292 290 293 296 300
228 224 225 225 223 221 219 219 221 221 221 220 219 218 217 217 216 216 215 214 214 215 217 220 221 221 223 224 224 225 226 226 227 229 232 235 237 237 238 240 244 247 250 252 253 253 252 252 252 253 255 258 261 263 264 266 267 268 268 269 271 275 277 277 277 280 281 283 284 284 284 284 282 282 283 282 282 284 289 291 286 284 288 293 299
229 224 225 226 224 222 219 219 219 220 220 220 219 218 218 217 217 216 215 214 214 214 215 218 220 221 222 224 226 227 229 229 229 230 232 235 237 239 240 243 247 249 251 253 255 257 258 257 256 255 255 257 259 260 262 264 265 266 268 270 270 271 272 273 274 275 276 276 277 277 278 278 277 278 281 284 287 291 295 293 286 282 284 291 301
231 225 225 226 225 223 220 219 219 219 218 219 219 219 218 217 217 216 215 214 214 214 215 217 219 221 222 224 227 228 230 232 233 232 232 234 236 238 240 243 246 247 249 253 256 258 260 261 261 259 258 258 258 258 260 261 262 263 266 267 267 267 267 267 268 269 270 271 270 270 270 271 272 274 278 283 287 290 292 291 286 281 283 293 300
234 226 224 225 225 224 222 220 220 219 218 218 219 219 219 218 217 217 216 215 214 214 214 215 217 220 222 223 226 228 230 233 234 233 232 232 234 236 239 242 244 246 248 252 255 258 260 262 263 263 262 261 260 260 261 261 262 264 265 265 264 262 261 261 262 263 264 265 267 269 271 274 275 275 276 277 278 281 283 281 276 273 278 288 293
234 226 224 225 224 223 222 221 219 218 218 217 218 219 219 217 216 216 216 215 215 215 214 214 215 218 221 222 225 229 231 232 234 234 233 234 235 237 238 240 242 243 246 249 253 257 260 262 264 264 262 261 260 259 259 260 262 263 263 261 258 256 256 257 258 260 263 266 271 276 279 280 277 273 269 266 265 265 266 265 262 264 273 279 279
234 226 224 224 223 222 221 219 218 218 218 218 218 219 219 217 216 216 215 215 215 215 215 215 215 216 219 222 226 230 232 232 233 235 236 236 237 239 239 240 241 243 246 248 252 255 258 260 260 261 261 260 258 257 257 256 256 257 257 256 255 255 256 257 259 263 269 275 280 283 283 279 270 262 257 254 251 251 255 257 258 263 268 267 260
231 225 223 223 222 220 218 217 217 217 217 217 219 220 220 218 217 216 215 215 215 215 215 216 216 216 218 221 224 228 231 232 233 236 236 237 239 240 240 240 240 241 242 244 248 251 252 254 255 257 257 257 255 254 253 252 251 251 252 254 256 258 260 262 265 269 274 280 284 286 283 276 265 257 251 246 243 248 257 263 263 263 261 252 243
230 224 222 222 221 219 217 216 217 216 217 217 218 219 220 219 217 217 216 215 215 215 215 216 218 219 220 220 221 223 227 230 234 237 238 238 240 241 240 239 238 238 240 243 246 248 248 250 252 254 255 255 253 252 251 250 249 249 250 251 253 254 256 260 264 268 274 278 281 281 276 266 259 254 248 243 242 247 256 261 259 257 252 243 240
230 224 220 219 219 219 217 215 215 216 218 218 219 221 221 220 220 220 219 219 218 217 217 218 220 221 221 221 221 221 224 229 235 239 241 242 243 244 245 244 242 241 244 247 247 246 246 247 249 252 254 255 255 254 252 251 250 250 250 250 249 250 252 256 261 268 273 275 275 273 266 257 252 249 243 241 243 246 250 255 255 251 243 238 237
223 222 220 218 218 218 217 215 214 216 218 218 219 221 223 222 222 221 221 221 222 221 220 221 222 222 222 224 225 227 230 234 236 238 241 243 245 247 249 250 249 249 250 249 245 243 243 246 248 251 253 255 256 257 257 255 254 254 255 254 252 251 253 256 262 268 272 274 272 266 257 250 248 245 242 243 247 249 252 255 253 243 233 228 228
214 217 217 216 216 215 213 212 213 216 219 220 220 221 222 222 222 222 222 223 222 222 223 224 225 225 226 227 229 231 234 236 236 237 240 242 243 245 247 248 249 249 248 246 242 239 240 243 246 250 253 255 257 258 260 259 257 257 258 258 257 257 257 260 264 269 272 271 267 261 257 253 248 243 241 246 252 254 252 249 242 233 229 225 223
215 215 213 211 211 211 211 211 211 213 217 219 220 221 222 222 222 222 222 223 223 222 222 222 225 227 229 230 232 233 235 236 237 238 240 241 242 245 247 248 247 243 240 239 240 241 241 243 246 250 252 255 258 260 261 261 260 259 259 259 260 261 262 264 267 271 272 267 260 257 257 255 250 245 243 246 248 244 241 240 239 239 234 212 202
226 225 219 212 210 211 214 216 215 215 216 217 219 222 223 223 223 222 220 220 221 221 221 221 223 226 227 230 233 236 239 240 240 240 240 241 243 245 245 244 241 236 233 234 237 239 241 242 244 248 250 255 260 262 262 260 256 255 256 257 257 258 261 265 269 272 270 263 258 257 258 257 256 255 249 237 227 226 232 236 234 234 219 187 198
238 237 232 225 221 217 216 218 219 219 220 220 220 222 223 222 222 223 221 218 216 216 217 219 220 222 224 226 229 232 235 238 240 240 239 238 238 238 237 236 233 231 230 231 234 237 238 239 241 243 247 252 258 261 261 257 251 248 249 249 249 251 255 262 268 269 266 261 259 260 260 256 252 244 230 214 207 216 226 227 224 222 211 201 212
249 245 238 235 232 226 220 219 221 221 221 221 220 220 220 221 223 223 221 217 214 213 213 214 215 216 218 220 222 223 224 227 230 232 232 231 231 231 230 231 231 230 229 230 233 236 237 238 240 241 244 248 254 259 258 254 250 249 250 251 252 252 255 262 265 261 256 255 258 260 257 249 238 224 213 210 212 216 218 222 227 226 211 204 215
254 249 240 236 234 229 223 221 223 222 221 221 219 217 218 219 221 222 222 219 216 214 211 210 209 210 211 213 216 217 216 217 219 221 224 227 229 231 231 232 232 232 231 232 234 235 234 234 236 238 242 247 251 254 254 251 250 251 253 255 256 255 257 259 256 249 247 252 257 252 241 229 218 207 205 210 215 215 221 230 230 215 207 213 233
243 242 238 234 231 227 223 222 224 224 221 220 218 216 215 216 217 219 221 222 219 216 212 208 206 206 207 209 211 212 212 211 214 219 223 225 226 228 230 231 232 232 232 232 233 233 232 232 233 235 240 246 250 251 252 254 253 250 249 251 251 251 250 247 243 242 247 250 241 225 208 195 189 187 192 205 214 215 221 226 209 200 215 238 254
229 229 230 227 223 221 222 223 224 223 220 217 216 215 214 213 212 213 217 221 220 215 211 208 206 206 206 206 207 209 211 213 216 220 222 221 220 221 222 224 227 230 230 230 232 234 234 233 234 236 239 247 255 254 251 249 246 242 240 240 239 238 237 236 236 238 238 224 205 197 195 197 201 201 204 216 222 215 212 217 214 216 235 255 259
217 219 220 220 216 217 221 224 224 224 221 216 212 210 208 207 207 209 212 215 216 212 207 206 206 206 206 206 206 208 210 212 213 214 214 214 215 216 218 220 222 225 229 231 233 235 236 236 238 239 239 246 255 254 248 243 239 233 230 230 230 228 229 232 231 224 210 194 187 188 194 205 217 220 218 221 223 217 217 226 231 229 238 251 255
66 174 195 198 198 206 218 223 223 221 217 214 211 206 198 196 199 203 206 208 209 208 206 205 205 204 203 204 206 208 210 210 209 209 209 210 210 211 214 219 221 224 227 229 231 233 234 236 237 237 238 243 246 242 235 231 229 225 222 225 226 220 215 213 205 189 182 182 185 187 189 194 208 217 214 212 216 218 222 228 233 235 241 252 258
61 99 159 177 178 183 199 209 209 206 204 203 201 193 187 188 192 196 200 203 204 203 202 201 201 200 200 201 203 206 208 207 207 207 208 209 210 211 214 217 220 222 224 224 225 227 229 229 230 231 234 238 236 228 218 216 218 217 215 215 211 201 194 188 182 181 183 184 187 191 193 196 200 205 207 207 212 219 225 229 235 242 249 258 265
57 72 103 151 163 161 159 167 178 185 190 189 182 175 177 184 186 185 188 192 193 192 192 191 189 190 194 198 202 204 204 203 203 202 203 204 206 208 210 212 215 219 221 222 222 222 221 219 219 220 224 229 229 224 217 213 212 208 201 197 194 192 190 189 188 191 194 195 194 197 200 202 202 205 207 209 214 222 228 233 238 245 253 261 266
51 60 68 96 130 132 118 123 141 159 171 174 170 167 169 173 171 167 169 172 174 177 180 179 178 182 188 195 202 206 203 199 196 194 194 195 198 201 204 209 214 218 219 217 215 215 216 214 211 210 212 215 217 217 212 204 199 195 191 190 190 190 191 195 198 201 203 202 198 198 201 202 201 204 208 212 218 224 231 238 245 250 257 261 265
51 56 58 68 87 93 92 107 123 136 145 153 160 162 163 162 162 160 159 158 158 164 170 172 175 180 181 183 191 197 196 194 194 193 192 193 196 199 202 204 206 207 206 203 201 203 206 206 202 198 195 194 196 197 195 190 190 192 193 193 193 193 196 202 207 206 202 200 197 199 205 210 211 212 216 221 226 231 238 246 252 257 260 263 265
55 57 59 62 67 69 76 95 113 125 132 140 147 150 152 154 156 157 156 155 155 158 161 164 169 172 171 170 176 181 183 184 185 185 185 187 190 193 196 196 197 199 200 197 194 191 191 189 185 182 182 183 185 186 186 187 191 196 198 198 199 200 200 202 203 202 201 201 203 207 214 219 223 226 228 231 236 242 248 254 259 263 266 269 271
70 64 62 62 65 67 70 80 97 112 124 133 138 140 143 147 150 151 153 155 157 157 158 160 163 165 164 166 169 171 172 174 175 176 178 182 185 188 190 191 191 192 190 185 180 176 174 172 173 174 176 178 178 179 180 181 185 191 194 196 199 199 196 194 195 197 201 206 211 216 221 226 231 236 239 244 250 255 261 266 270 272 274 276 279
92 85 77 73 72 71 72 74 78 88 103 117 127 133 137 140 142 145 148 153 155 157 158 160 162 164 164 165 167 166 167 169 173 176 179 182 184 185 186 186 184 183 180 175 173 171 169 168 169 170 172 172 172 172 173 175 178 182 185 188 190 191 192 193 196 199 204 211 219 225 229 234 238 243 249 256 262 267 271 274 275 276 277 279 281
100 100 96 93 89 84 82 81 80 81 88 98 108 116 123 129 134 139 143 148 152 155 156 157 159 160 161 162 163 163 165 168 172 176 179 183 185 185 186 186 184 183 181 177 174 171 169 167 167 168 170 170 171 173 175 177 180 183 185 188 190 193 196 200 204 210 217 223 231 237 242 247 250 254 259 263 267 271 275 276 276 278 280 281 283
104 104 104 102 100 99 97 95 92 91 93 99 103 107 112 117 123 129 135 140 144 147 151 153 154 156 157 158 158 159 162 167 170 172 173 175 177 177 178 176 172 170 170 166 162 160 160 159 160 163 165 167 170 173 176 178 181 184 187 192 196 200 206 214 221 229 236 241 246 250 254 258 261 263 265 268 270 274 277 279 280 281 283 284 287
117 111 108 107 105 104 104 103 103 104 107 110 111 112 113 115 118 122 127 132 136 138 141 145 148 151 154 154 154 157 160 161 158 153 149 144 141 138 137 136 135 136 139 140 139 140 142 144 146 151 155 158 162 166 170 173 177 181 187 193 199 206 217 227 233 238 242 246 250 252 255 259 263 267 270 273 276 278 279 279 280 281 282 284 286
125 117 112 110 110 110 110 109 110 112 114 114 115 117 118 119 120 122 124 128 133 135 136 138 142 147 150 150 149 150 149 145 141 138 134 132 132 133 133 134 135 135 135 135 136 137 139 140 141 143 147 151 156 161 166 170 174 176 179 185 194 206 219 228 234 237 240 243 247 250 253 256 261 266 269 271 273 275 277 277 278 279 279 278 276